EZY32BM EGKK-EDDM

Flight info

Callsign EZY32BM
Flight time N/A
Altitude 23000
Route MIMFO1M MIMFO Y312 DVR/N0442F370 UL9 KONAN UL607 SPI DCT MOVUM T109 HAREM/N0369F230 T104 ROKIL ROKIL1A
Aircraft A20N/M-SDE2E3FGHIRWXY/LB1

Departure

Time 2026-04-18 11:36
Airport London Gatwick Airport (EGKK)

Arrival

Time N/A
Airport Munich Airport (EDDM)
Time Latitude Longitude Altitude Speed Heading
2026-04-18 11:09 51.15480 -0.16956 206 ft 0 kts 348°
2026-04-18 11:18 51.15462 -0.16950 210 ft 3 kts 348°
2026-04-18 11:18 51.15445 -0.16955 206 ft 3 kts 59°
2026-04-18 11:19 51.15443 -0.16962 206 ft 0 kts 73°
2026-04-18 11:22 51.15443 -0.16960 206 ft 1 kts 82°
2026-04-18 11:22 51.15441 -0.16904 206 ft 9 kts 92°
2026-04-18 11:22 51.15446 -0.16771 210 ft 13 kts 85°
2026-04-18 11:23 51.15432 -0.16737 207 ft 6 kts 141°
2026-04-18 11:23 51.15378 -0.16702 207 ft 12 kts 164°
2026-04-18 11:23 51.15337 -0.16685 214 ft 2 kts 166°
2026-04-18 11:23 51.15326 -0.16680 204 ft 0 kts 166°
2026-04-18 11:24 51.15307 -0.16672 215 ft 8 kts 166°
2026-04-18 11:25 51.15258 -0.16655 204 ft 0 kts 167°
2026-04-18 11:25 51.15226 -0.16641 211 ft 6 kts 165°
2026-04-18 11:25 51.15211 -0.16636 207 ft 1 kts 166°
2026-04-18 11:28 51.15185 -0.16630 203 ft 10 kts 177°
2026-04-18 11:28 51.15134 -0.16707 208 ft 10 kts 253°
2026-04-18 11:29 51.15133 -0.16713 206 ft 0 kts 255°
2026-04-18 11:29 51.15131 -0.16730 203 ft 7 kts 260°
2026-04-18 11:29 51.15119 -0.16907 206 ft 23 kts 260°
2026-04-18 11:29 51.15105 -0.17092 212 ft 10 kts 289°
2026-04-18 11:30 51.15112 -0.17116 208 ft 0 kts 302°
2026-04-18 11:30 51.15123 -0.17135 217 ft 10 kts 318°
2026-04-18 11:30 51.15197 -0.17169 210 ft 1 kts 13°
2026-04-18 11:30 51.15198 -0.17167 210 ft 1 kts 34°
2026-04-18 11:31 51.15206 -0.17093 205 ft 14 kts 92°
2026-04-18 11:31 51.15221 -0.16916 209 ft 0 kts 78°
2026-04-18 11:32 51.15222 -0.16907 207 ft 4 kts 78°
2026-04-18 11:32 51.15221 -0.16851 208 ft 0 kts 107°
2026-04-18 11:33 51.15201 -0.16805 206 ft 11 kts 140°
2026-04-18 11:33 51.15146 -0.16795 213 ft 5 kts 199°
2026-04-18 11:33 51.15111 -0.16862 212 ft 8 kts 245°
2026-04-18 11:34 51.15110 -0.16865 212 ft 0 kts 250°
2026-04-18 11:35 51.15101 -0.16910 210 ft 13 kts 253°
2026-04-18 11:35 51.15048 -0.17274 205 ft 67 kts 258°
2026-04-18 11:36 51.14900 -0.18411 215 ft 143 kts 258°
2026-04-18 11:36 51.14657 -0.20135 630 ft 167 kts 259°
2026-04-18 11:36 51.14405 -0.21895 1562 ft 160 kts 260°
2026-04-18 11:36 51.14153 -0.23723 2109 ft 182 kts 261°
2026-04-18 11:37 51.13871 -0.25806 2450 ft 205 kts 261°
2026-04-18 11:37 51.13746 -0.28107 3121 ft 211 kts 277°
2026-04-18 11:37 51.14206 -0.30301 3729 ft 211 kts 303°
2026-04-18 11:37 51.15290 -0.31884 3969 ft 216 kts 331°
2026-04-18 11:38 51.16769 -0.32376 3993 ft 223 kts
2026-04-18 11:38 51.18245 -0.31560 3994 ft 231 kts 31°
2026-04-18 11:38 51.19273 -0.29578 3991 ft 237 kts 64°
2026-04-18 11:38 51.19748 -0.27042 3995 ft 240 kts 75°
2026-04-18 11:39 51.20075 -0.24453 3999 ft 241 kts 77°
2026-04-18 11:39 51.20391 -0.21825 3998 ft 241 kts 77°
2026-04-18 11:39 51.20709 -0.19181 3995 ft 246 kts 76°
2026-04-18 11:39 51.21042 -0.16467 3990 ft 251 kts 76°
2026-04-18 11:40 51.21382 -0.13719 4105 ft 254 kts 77°
2026-04-18 11:40 51.21732 -0.10916 4636 ft 264 kts 77°
2026-04-18 11:40 51.22103 -0.07965 4933 ft 276 kts 77°
2026-04-18 11:40 51.22480 -0.04943 4992 ft 278 kts 77°
2026-04-18 11:41 51.22851 -0.01959 4992 ft 277 kts 77°
2026-04-18 11:41 51.23228 0.01062 4909 ft 277 kts 78°
2026-04-18 11:41 51.23604 0.04079 4900 ft 278 kts 78°
2026-04-18 11:41 51.23981 0.07099 4878 ft 277 kts 77°
2026-04-18 11:42 51.24357 0.10126 4864 ft 277 kts 77°
2026-04-18 11:42 51.24731 0.13144 4850 ft 278 kts 77°
2026-04-18 11:42 51.25106 0.16166 4828 ft 277 kts 77°
2026-04-18 11:42 51.25402 0.19161 4821 ft 277 kts 86°
2026-04-18 11:43 51.25331 0.22256 5119 ft 282 kts 95°
2026-04-18 11:43 51.25112 0.25395 5604 ft 284 kts 97°
2026-04-18 11:43 51.24871 0.28521 5760 ft 283 kts 97°
2026-04-18 11:43 51.24628 0.31650 5754 ft 283 kts 97°
2026-04-18 11:44 51.24387 0.34776 5750 ft 284 kts 97°
2026-04-18 11:44 51.24145 0.37911 5747 ft 285 kts 97°
2026-04-18 11:44 51.23906 0.41021 5743 ft 284 kts 97°
2026-04-18 11:44 51.23665 0.44147 5751 ft 284 kts 97°
2026-04-18 11:45 51.23422 0.47287 5749 ft 285 kts 98°
2026-04-18 11:45 51.23027 0.50376 5751 ft 284 kts 107°
2026-04-18 11:45 51.22463 0.53405 6090 ft 287 kts 109°
2026-04-18 11:45 51.21860 0.56464 6580 ft 288 kts 110°
2026-04-18 11:46 51.21257 0.59502 6753 ft 287 kts 110°
2026-04-18 11:46 51.20654 0.62544 6871 ft 288 kts 110°
2026-04-18 11:46 51.20047 0.65607 7029 ft 290 kts 110°
2026-04-18 11:46 51.19440 0.68673 7061 ft 290 kts 110°
2026-04-18 11:47 51.18841 0.71701 7084 ft 290 kts 110°
2026-04-18 11:47 51.18229 0.74781 7446 ft 293 kts 110°
2026-04-18 11:47 51.17609 0.77900 8316 ft 296 kts 110°
2026-04-18 11:47 51.16985 0.81039 9272 ft 299 kts 111°
2026-04-18 11:48 51.16349 0.84229 10164 ft 304 kts 111°
2026-04-18 11:48 51.15691 0.87517 10692 ft 322 kts 111°
2026-04-18 11:48 51.14992 0.90992 11020 ft 345 kts 111°
2026-04-18 11:48 51.14240 0.94739 11562 ft 361 kts 111°
2026-04-18 11:49 51.13471 0.98584 12324 ft 368 kts 111°
2026-04-18 11:49 51.12686 1.02500 13139 ft 374 kts 111°
2026-04-18 11:49 51.11885 1.06485 13939 ft 381 kts 111°
2026-04-18 11:49 51.11070 1.10531 14659 ft 386 kts 111°
2026-04-18 11:50 51.10252 1.14580 15416 ft 390 kts 111°
2026-04-18 11:50 51.09415 1.18716 16176 ft 394 kts 111°
2026-04-18 11:50 51.08566 1.22895 16909 ft 399 kts 111°
2026-04-18 11:50 51.07707 1.27118 17624 ft 403 kts 112°
2026-04-18 11:51 51.06847 1.31336 18318 ft 407 kts 112°
2026-04-18 11:51 51.05967 1.35641 18940 ft 412 kts 112°
2026-04-18 11:51 51.05071 1.40018 19543 ft 416 kts 112°
2026-04-18 11:51 51.04170 1.44407 20167 ft 419 kts 112°
2026-04-18 11:52 51.03259 1.48838 20811 ft 422 kts 112°
2026-04-18 11:52 51.02352 1.53239 21394 ft 426 kts 112°
2026-04-18 11:52 51.01421 1.57746 21976 ft 430 kts 112°
2026-04-18 11:52 51.00481 1.62282 22544 ft 434 kts 112°
2026-04-18 11:53 50.99531 1.66857 23050 ft 439 kts 112°
2026-04-18 11:53 50.98573 1.71468 23231 ft 440 kts 112°
2026-04-18 11:53 50.97610 1.76089 23239 ft 440 kts 112°
2026-04-18 11:53 50.96646 1.80707 23238 ft 441 kts 112°
2026-04-18 11:54 50.95690 1.85273 23244 ft 441 kts 112°
2026-04-18 11:54 50.94721 1.89885 23222 ft 441 kts 112°
2026-04-18 11:54 50.93751 1.94498 23237 ft 440 kts 112°
2026-04-18 11:54 50.92781 1.99098 23240 ft 440 kts 112°
2026-04-18 11:55 50.91808 2.03700 23239 ft 439 kts 112°
2026-04-18 11:55 50.90835 2.08293 23238 ft 439 kts 112°
2026-04-18 11:55 50.90191 2.11328 23238 ft 439 kts 112°
2026-04-18 11:55 50.89213 2.15926 23240 ft 439 kts 112°
2026-04-18 11:56 50.88234 2.20517 23239 ft 439 kts 112°
2026-04-18 11:56 50.87256 2.25095 23239 ft 439 kts 112°
2026-04-18 11:56 50.86275 2.29676 23240 ft 439 kts 112°
2026-04-18 11:56 50.85293 2.34251 23219 ft 439 kts 112°
2026-04-18 11:57 50.84308 2.38829 23234 ft 439 kts 112°
2026-04-18 11:57 50.83319 2.43418 23240 ft 439 kts 112°
2026-04-18 11:57 50.82344 2.47929 23234 ft 439 kts 112°
2026-04-18 11:57 50.81355 2.52499 23238 ft 439 kts 112°
2026-04-18 11:58 50.80365 2.57060 23240 ft 439 kts 112°
2026-04-18 11:58 50.79372 2.61627 23238 ft 439 kts 112°
2026-04-18 11:58 50.78375 2.66198 23241 ft 439 kts 112°
2026-04-18 11:58 50.77379 2.70758 23238 ft 439 kts 112°
2026-04-18 11:59 50.76379 2.75326 23235 ft 439 kts 112°
2026-04-18 11:59 50.75379 2.79885 23238 ft 439 kts 112°
2026-04-18 11:59 50.74378 2.84436 23239 ft 439 kts 113°
2026-04-18 11:59 50.73385 2.88941 23240 ft 440 kts 113°
2026-04-18 12:00 50.72379 2.93493 23237 ft 440 kts 113°
2026-04-18 12:00 50.71369 2.98059 23239 ft 440 kts 113°
2026-04-18 12:00 50.70356 3.02623 23238 ft 440 kts 113°
2026-04-18 12:00 50.69343 3.07180 23243 ft 440 kts 113°
2026-04-18 12:01 50.67309 3.16296 23240 ft 440 kts 113°
2026-04-18 12:01 50.66290 3.20851 23239 ft 440 kts 113°
2026-04-18 12:01 50.65269 3.25402 23237 ft 440 kts 113°
2026-04-18 12:02 50.64247 3.29949 23234 ft 440 kts 114°
2026-04-18 12:02 50.63222 3.34499 23240 ft 441 kts 114°
2026-04-18 12:02 50.62205 3.39002 23238 ft 442 kts 114°
2026-04-18 12:02 50.61173 3.43565 23237 ft 442 kts 114°
2026-04-18 12:03 50.60139 3.48128 23236 ft 442 kts 114°
2026-04-18 12:03 50.59102 3.52691 23215 ft 442 kts 114°
2026-04-18 12:03 50.58063 3.57255 23236 ft 443 kts 114°
2026-04-18 12:03 50.57033 3.61766 23235 ft 443 kts 114°
2026-04-18 12:04 50.55989 3.66331 23233 ft 443 kts 114°
2026-04-18 12:04 50.54943 3.70898 23230 ft 443 kts 114°
2026-04-18 12:04 50.53895 3.75462 23227 ft 443 kts 114°
2026-04-18 12:04 50.52847 3.80015 23229 ft 442 kts 114°
2026-04-18 12:05 50.51799 3.84559 23232 ft 442 kts 114°
2026-04-18 12:05 50.50745 3.89116 23232 ft 442 kts 114°
2026-04-18 12:05 50.49693 3.93659 23224 ft 442 kts 114°
2026-04-18 12:05 50.48651 3.98148 23222 ft 442 kts 115°
2026-04-18 12:06 50.47596 4.02683 23222 ft 442 kts 115°
2026-04-18 12:06 50.46537 4.07225 23219 ft 442 kts 115°
2026-04-18 12:06 50.45475 4.11772 23214 ft 442 kts 115°
2026-04-18 12:06 50.44409 4.16324 23213 ft 442 kts 115°
2026-04-18 12:07 50.43359 4.20801 23215 ft 442 kts 115°
2026-04-18 12:07 50.42295 4.25325 23211 ft 442 kts 115°
2026-04-18 12:07 50.41227 4.29861 23211 ft 442 kts 115°
2026-04-18 12:07 50.40159 4.34388 23212 ft 442 kts 115°
2026-04-18 12:08 50.39089 4.38911 23209 ft 442 kts 115°
2026-04-18 12:08 50.38019 4.43424 23210 ft 442 kts 115°
2026-04-18 12:08 50.36946 4.47939 23211 ft 442 kts 115°
2026-04-18 12:08 50.35871 4.52454 23211 ft 442 kts 115°
2026-04-18 12:09 50.34796 4.56962 23214 ft 442 kts 115°
2026-04-18 12:09 50.33720 4.61464 23201 ft 442 kts 115°
2026-04-18 12:09 50.32640 4.65970 23182 ft 442 kts 115°
2026-04-18 12:09 50.31559 4.70470 23204 ft 442 kts 115°
2026-04-18 12:10 50.30489 4.74921 23204 ft 442 kts 115°
2026-04-18 12:10 50.29407 4.79414 23203 ft 442 kts 115°
2026-04-18 12:10 50.28316 4.83928 23203 ft 442 kts 115°
2026-04-18 12:10 50.27229 4.88421 23202 ft 442 kts 115°
2026-04-18 12:11 50.26139 4.92918 23207 ft 442 kts 115°
2026-04-18 12:11 50.25046 4.97413 23204 ft 442 kts 115°
2026-04-18 12:11 50.23954 5.01900 23204 ft 442 kts 115°
2026-04-18 12:11 50.22860 5.06386 23186 ft 442 kts 115°
2026-04-18 12:12 50.21765 5.10865 23201 ft 441 kts 115°
2026-04-18 12:12 50.20668 5.15343 23195 ft 441 kts 115°
2026-04-18 12:12 50.19570 5.19817 23197 ft 441 kts 115°
2026-04-18 12:12 50.18484 5.24229 23199 ft 441 kts 115°
2026-04-18 12:13 50.17379 5.28712 23195 ft 441 kts 115°
2026-04-18 12:13 50.16277 5.33176 23201 ft 441 kts 115°
2026-04-18 12:13 50.15170 5.37648 23202 ft 441 kts 115°
2026-04-18 12:13 50.14064 5.42111 23199 ft 441 kts 115°
2026-04-18 12:14 50.12954 5.46578 23202 ft 441 kts 115°
2026-04-18 12:14 50.11859 5.50975 23195 ft 441 kts 115°
2026-04-18 12:14 50.10749 5.55424 23203 ft 440 kts 115°
2026-04-18 12:14 50.09640 5.59862 23196 ft 439 kts 115°
2026-04-18 12:15 50.08530 5.64294 23193 ft 439 kts 115°
2026-04-18 12:15 50.07419 5.68721 23195 ft 439 kts 115°
2026-04-18 12:15 50.06308 5.73142 23195 ft 439 kts 115°
2026-04-18 12:15 50.05193 5.77567 23200 ft 439 kts 115°
2026-04-18 12:16 50.04076 5.81988 23195 ft 438 kts 115°
2026-04-18 12:16 50.02962 5.86396 23200 ft 438 kts 115°
2026-04-18 12:16 50.01844 5.90807 23189 ft 438 kts 115°
2026-04-18 12:16 50.00724 5.95217 23185 ft 438 kts 115°
2026-04-18 12:17 49.99604 5.99621 23187 ft 437 kts 115°
2026-04-18 12:17 49.98498 6.03958 23199 ft 437 kts 115°
2026-04-18 12:17 49.97376 6.08351 23194 ft 437 kts 115°
2026-04-18 12:17 49.96256 6.12729 23190 ft 437 kts 115°
2026-04-18 12:18 49.95130 6.17118 23191 ft 437 kts 115°
2026-04-18 12:18 49.94004 6.21503 23188 ft 437 kts 115°
2026-04-18 12:18 49.92879 6.25875 23177 ft 437 kts 115°
2026-04-18 12:18 49.91749 6.30255 23180 ft 437 kts 115°
2026-04-18 12:19 49.90617 6.34638 23174 ft 437 kts 115°
2026-04-18 12:19 49.89485 6.39009 23167 ft 436 kts 115°
2026-04-18 12:19 49.88353 6.43374 23170 ft 436 kts 115°
2026-04-18 12:19 49.87219 6.47735 23175 ft 436 kts 115°
2026-04-18 12:20 49.86101 6.52031 23171 ft 436 kts 115°